May 7 Florida TAGA Results Above Detection Limit,,,,,,
Date_Time,Benzene Avg. (ppb),Toluene Avg. (ppb),Xylene Avg. (ppb),Latitude,Longitude,
5/7/2010 23:46:02,0.111,0.000,0.733,30.177931,-85.804547,
5/7/2010 23:46:03,0.000,0.894,0.693,30.177931,-85.804549,
5/7/2010 23:46:04,0.000,0.000,1.052,30.177931,-85.804549,
5/7/2010 23:46:05,0.000,0.926,0.925,30.177931,-85.804549,
5/7/2010 23:46:12,0.346,0.000,1.546,30.177931,-85.804549,
5/7/2010 23:36:17,0.167,0.431,0.532,30.188711,-85.759836,
5/7/2010 23:36:25,0.111,0.894,0.463,30.188711,-85.759845,
5/7/2010 23:36:30,0.279,1.788,0.480,30.188710,-85.759894,
5/7/2010 23:36:31,0.803,1.109,0.509,30.188709,-85.759918,
5/7/2010 23:36:33,0.290,1.109,0.505,30.188706,-85.759998,
5/7/2010 23:36:47,0.290,0.000,0.561,30.188610,-85.761000,
5/7/2010 23:36:48,0.680,2.747,0.981,30.188556,-85.761045,
5/7/2010 23:36:49,1.873,2.715,1.482,30.188226,-85.761130,
5/7/2010 23:36:55,0.111,0.894,0.767,30.188138,-85.761157,
5/7/2010 23:37:12,0.914,0.431,0.502,30.185906,-85.761004
5/7/2010 23:37:13,0.513,1.508,0.695,30.185766,-85.760997
5/7/2010 23:40:38,0.000,4.169,0.045,30.188374,-85.764130
5/7/2010 23:40:50,0.223,1.109,0.635,30.187733,-85.766104
5/7/2010 23:40:51,0.457,1.573,0.904,30.187680,-85.766266
5/7/2010 23:40:52,0.401,1.109,0.999,30.187629,-85.766427
5/7/2010 23:40:53,0.167,0.894,1.086,30.187578,-85.766584
5/7/2010 23:40:54,0.747,2.532,0.643,30.187529,-85.766738
5/7/2010 23:41:44,0.401,0.894,0.533,30.186143,-85.771702
5/7/2010 23:41:45,0.334,1.292,0.767,30.186100,-85.771862
5/7/2010 23:41:46,0.513,2.499,0.476,30.186057,-85.772024
5/7/2010 23:41:47,1.785,1.788,0.791,30.186013,-85.772189
5/7/2010 23:41:48,1.785,1.357,0.610,30.185966,-85.772357
5/7/2010 23:41:56,0.346,0.431,0.468,30.185584,-85.773784
5/7/2010 23:42:05,0.167,2.068,0.478,30.185165,-85.775346
5/7/2010 23:42:06,0.111,1.540,0.649,30.185119,-85.775521
5/7/2010 23:42:07,0.580,1.142,0.867,30.185071,-85.775697
5/7/2010 23:42:08,0.346,0.894,0.604,30.185024,-85.775873
5/7/2010 23:42:19,0.056,2.897,1.175,30.184473,-85.777922
5/7/2010 23:42:20,0.223,0.862,1.515,30.184421,-85.778116
5/7/2010 23:42:21,0.346,0.215,0.722,30.184369,-85.778311
5/7/2010 23:42:22,0.401,0.926,0.459,30.184317,-85.778505
5/7/2010 23:42:35,0.569,1.723,0.465,30.183678,-85.780889
5/7/2010 23:43:01,0.056,0.646,0.508,30.182745,-85.784366
5/7/2010 23:43:02,0.346,1.325,0.449,30.182715,-85.784479
5/7/2010 23:43:09,0.279,0.431,0.455,30.182525,-85.785190
5/7/2010 23:43:10,0.513,1.573,0.491,30.182502,-85.785277
5/7/2010 23:43:11,0.111,1.540,0.589,30.182479,-85.785361
5/7/2010 23:43:19,0.469,1.788,0.505,30.182375,-85.785749
5/7/2010 23:43:24,0.792,1.540,0.501,30.182359,-85.785809
5/7/2010 23:43:25,0.279,0.646,0.749,30.182358,-85.785813
5/7/2010 23:43:26,0.680,2.154,0.848,30.182358,-85.785813
5/7/2010 23:43:27,0.859,2.682,0.640,30.182358,-85.785813
5/7/2010 23:43:28,0.513,0.894,0.524,30.182358,-85.785813
5/7/2010 23:43:29,0.580,1.357,0.479,30.182358,-85.785813
5/7/2010 23:43:30,0.223,0.431,0.522,30.182358,-85.785813
5/7/2010 23:43:31,0.446,0.679,0.497,30.182358,-85.785813
5/7/2010 23:43:38,0.000,1.109,0.493,30.182310,-85.785994
5/7/2010 23:43:39,0.223,1.756,0.558,30.182293,-85.786058
5/7/2010 23:43:40,0.290,1.142,0.497,30.182273,-85.786133
5/7/2010 23:43:46,0.334,1.540,0.611,30.182100,-85.786779
5/7/2010 23:43:47,0.624,1.325,0.552,30.182064,-85.786913
5/7/2010 23:43:48,0.982,0.646,0.505,30.182026,-85.787051
5/7/2010 23:43:53,2.744,1.573,0.626,30.181848,-85.787723
5/7/2010 23:43:54,0.569,1.573,0.725,30.181816,-85.787844
5/7/2010 23:44:22,0.290,0.862,0.485,30.180741,-85.791847
5/7/2010 23:44:55,0.056,0.463,0.717,30.179402,-85.796831
5/7/2010 23:44:56,0.569,1.109,1.818,30.179363,-85.796974
5/7/2010 23:44:57,1.896,1.357,0.952,30.179325,-85.797119
5/7/2010 23:44:58,1.929,0.862,0.693,30.179286,-85.797265
5/7/2010 23:44:59,0.457,2.251,0.640,30.179246,-85.797412
5/7/2010 23:45:13,0.457,2.467,0.507,30.178717,-85.799381
5/7/2010 23:45:17,0.056,1.573,0.461,30.178590,-85.799851
5/7/2010 23:45:28,0.223,0.646,0.468,30.178271,-85.801192
5/7/2010 23:45:29,0.457,0.894,0.551,30.178241,-85.801336
5/7/2010 23:45:36,0.859,2.833,1.813,30.178066,-85.802371
5/7/2010 23:45:37,1.562,1.605,0.762,30.178048,-85.802515
5/7/2010 23:45:49,0.401,0.646,0.562,30.177945,-85.803969
5/7/2010 23:45:50,0.580,4.320,0.878,30.177943,-85.804059
5/7/2010 23:45:51,0.401,1.788,0.733,30.177941,-85.804142
5/7/2010 23:45:52,0.513,1.820,0.874,30.177939,-85.804220
5/7/2010 23:45:56,0.234,0.215,0.563,30.177935,-85.804444
5/7/2010 23:45:57,0.234,0.431,0.750,30.177935,-85.804470
5/7/2010 23:45:58,0.111,0.000,0.558,30.177935,-85.804488
5/7/2010 23:45:59,0.056,0.215,0.612,30.177935,-85.804505
5/7/2010 23:46:00,0.000,0.215,0.580,30.177935,-85.804523
5/7/2010 23:46:06,0.056,0.000,1.349,30.177941,-85.804548
5/7/2010 23:46:07,0.000,0.215,1.630,30.177940,-85.804548
5/7/2010 23:46:08,0.000,0.926,1.630,30.177940,-85.804548
5/7/2010 23:46:09,0.993,0.000,1.615,30.177940,-85.804548
5/7/2010 23:46:10,0.111,1.540,1.519,30.177940,-85.804549
5/7/2010 23:46:11,0.000,0.463,1.572,30.177941,-85.804549
5/7/2010 23:46:13,0.000,0.215,1.530,30.177942,-85.804548
5/7/2010 23:46:14,0.167,0.215,1.631,30.177943,-85.804548
5/7/2010 23:46:15,0.234,0.431,1.790,30.177943,-85.804548
5/7/2010 23:46:16,0.000,0.215,1.709,30.177944,-85.804548
5/7/2010 23:46:17,0.056,0.215,1.554,30.177944,-85.804548
5/7/2010 23:46:18,0.111,1.788,1.654,30.177943,-85.804548
5/7/2010 23:46:19,0.056,1.325,1.747,30.177943,-85.804548
5/7/2010 23:46:20,0.000,0.926,1.685,30.177942,-85.804548
5/7/2010 23:46:21,0.703,0.894,1.636,30.177942,-85.804548
5/7/2010 23:46:22,0.000,0.679,1.602,30.177941,-85.804549
5/7/2010 23:46:23,0.290,0.215,1.473,30.177941,-85.804549
5/7/2010 23:46:24,0.056,0.431,1.558,30.177941,-85.804549
5/7/2010 23:46:25,0.000,1.292,1.725,30.177941,-85.804549
5/7/2010 23:46:26,0.056,0.215,1.507,30.177941,-85.804549
5/7/2010 23:46:27,0.279,0.679,1.636,30.177940,-85.804549
5/7/2010 23:46:28,0.056,0.862,1.494,30.177940,-85.804549
5/7/2010 23:46:29,0.111,0.431,1.435,30.177940,-85.804549
5/7/2010 23:46:30,0.111,0.679,1.652,30.177940,-85.804549
5/7/2010 23:46:31,0.401,0.894,1.909,30.177940,-85.804549
5/7/2010 23:46:32,0.747,0.926,1.789,30.177940,-85.804549
5/7/2010 23:46:33,0.223,0.000,1.829,30.177940,-85.804549
5/7/2010 23:46:34,0.636,0.894,1.711,30.177940,-85.804549
5/7/2010 23:46:35,0.111,1.325,1.556,30.177940,-85.804549
5/7/2010 23:46:36,0.569,0.894,1.990,30.177940,-85.804549
5/7/2010 23:46:37,0.223,0.646,2.320,30.177940,-85.804549
5/7/2010 23:46:38,0.792,3.393,3.867,30.177940,-85.804549
5/7/2010 23:46:39,0.624,2.467,3.824,30.177940,-85.804549
5/7/2010 23:46:40,2.019,2.682,3.379,30.177940,-85.804549
5/7/2010 23:46:41,0.513,2.003,2.891,30.177940,-85.804549
5/7/2010 23:46:42,0.223,0.431,1.909,30.177939,-85.804549
5/7/2010 23:46:43,0.111,0.894,1.559,30.177939,-85.804549
5/7/2010 23:46:44,0.279,0.862,1.550,30.177939,-85.804549
5/7/2010 23:46:45,0.056,0.431,1.575,30.177939,-85.804549
5/7/2010 23:46:46,0.111,0.463,1.623,30.177939,-85.804549
5/7/2010 23:46:47,0.279,1.077,2.099,30.177939,-85.804551
5/7/2010 23:46:48,0.624,1.109,1.874,30.177939,-85.804556
5/7/2010 23:46:49,0.346,0.000,1.996,30.177939,-85.804570
5/7/2010 23:46:50,0.111,2.930,1.825,30.177939,-85.804598
5/7/2010 23:46:51,0.223,1.325,1.568,30.177939,-85.804636
5/7/2010 23:46:52,0.111,0.000,1.832,30.177940,-85.804681
5/7/2010 23:46:53,0.056,1.540,1.697,30.177940,-85.804731
5/7/2010 23:46:54,0.513,0.463,1.791,30.177942,-85.804791
5/7/2010 23:46:55,0.401,0.215,1.443,30.177945,-85.804861
5/7/2010 23:46:56,0.056,0.431,1.493,30.177948,-85.804940
5/7/2010 23:46:57,0.401,0.431,1.593,30.177953,-85.805028
5/7/2010 23:46:58,0.167,0.215,1.546,30.177957,-85.805123
5/7/2010 23:46:59,0.111,0.000,1.690,30.177962,-85.805224
5/7/2010 23:47:00,0.111,0.679,1.380,30.177967,-85.805332
5/7/2010 23:47:01,0.167,1.109,1.649,30.177973,-85.805445
5/7/2010 23:47:02,0.056,0.215,1.535,30.177980,-85.805561
5/7/2010 23:47:03,0.000,1.357,1.056,30.177989,-85.805680
5/7/2010 23:47:04,0.290,0.679,0.959,30.178002,-85.805802
5/7/2010 23:47:05,0.290,0.431,1.031,30.178017,-85.805928
5/7/2010 23:47:06,0.346,0.926,1.468,30.178034,-85.806055
5/7/2010 23:47:07,0.290,2.068,1.741,30.178052,-85.806180
5/7/2010 23:47:08,0.056,1.756,1.868,30.178071,-85.806303
5/7/2010 23:47:09,1.495,1.109,1.430,30.178089,-85.806428
5/7/2010 23:47:10,0.926,0.215,1.684,30.178106,-85.806555
5/7/2010 23:47:11,1.439,3.328,1.898,30.178122,-85.806679
5/7/2010 23:47:12,0.970,2.897,2.137,30.178137,-85.806803
5/7/2010 23:47:13,1.126,3.393,2.408,30.178152,-85.806928
5/7/2010 23:47:14,0.613,0.646,1.278,30.178168,-85.807054
5/7/2010 23:47:15,0.513,0.215,0.944,30.178186,-85.807178
5/7/2010 23:47:16,0.557,3.015,2.214,30.178203,-85.807298
5/7/2010 23:47:17,5.208,8.380,4.317,30.178222,-85.807413
5/7/2010 23:47:18,3.100,9.619,2.876,30.178242,-85.807527
5/7/2010 23:47:19,0.446,1.573,1.461,30.178262,-85.807640
5/7/2010 23:47:20,1.505,9.241,3.158,30.178283,-85.807748
5/7/2010 23:47:21,5.576,19.571,5.139,30.178303,-85.807850
5/7/2010 23:47:22,3.925,11.923,3.991,30.178324,-85.807953
5/7/2010 23:47:23,3.323,9.058,2.338,30.178347,-85.808056
5/7/2010 23:47:24,0.279,2.219,0.672,30.178372,-85.808161
5/7/2010 23:47:25,0.513,0.646,0.557,30.178397,-85.808265
5/7/2010 23:47:26,0.613,2.068,0.795,30.178424,-85.808372
5/7/2010 23:47:27,0.903,2.251,1.324,30.178453,-85.808480
5/7/2010 23:47:28,1.583,1.292,1.022,30.178482,-85.808589
5/7/2010 23:47:29,1.204,2.402,0.799,30.178512,-85.808700
5/7/2010 23:47:30,1.372,1.325,0.793,30.178543,-85.808814
5/7/2010 23:47:31,0.624,2.897,0.672,30.178576,-85.808929
5/7/2010 23:47:32,1.216,0.215,0.489,30.178610,-85.809045
5/7/2010 23:47:44,0.056,0.431,0.639,30.179137,-85.810540
5/7/2010 23:47:45,1.316,2.434,2.782,30.179188,-85.810670
5/7/2010 23:47:46,0.111,1.109,0.506,30.179242,-85.810800
5/7/2010 23:47:51,0.056,0.862,0.461,30.179548,-85.811446
5/7/2010 23:47:52,0.000,0.679,0.525,30.179612,-85.811576
5/7/2010 23:47:59,1.640,0.000,0.080,30.180131,-85.812503
5/7/2010 23:48:53,0.111,0.862,0.897,30.184719,-85.818480
5/7/2010 23:48:54,0.457,1.357,3.376,30.184793,-85.818606
5/7/2010 23:48:55,0.803,0.463,1.865,30.184866,-85.818732
5/7/2010 23:48:56,0.234,0.679,1.305,30.184940,-85.818859
5/7/2010 23:48:57,0.401,1.109,1.438,30.185014,-85.818988
5/7/2010 23:48:58,0.792,1.756,1.623,30.185089,-85.819118
5/7/2010 23:48:59,0.569,1.723,1.353,30.185165,-85.819250
5/7/2010 23:49:00,0.167,1.325,0.773,30.185241,-85.819385
5/7/2010 23:49:27,2.811,1.109,0.581,30.186783,-85.823800
5/7/2010 23:49:28,0.111,0.679,0.653,30.186825,-85.823932
5/7/2010 23:49:33,0.111,0.215,0.473,30.187077,-85.824523
5/7/2010 23:50:11,0.346,1.508,1.060,30.189151,-85.828103
5/7/2010 23:50:12,0.279,1.756,0.659,30.189163,-85.828126
5/7/2010 23:51:30,1.461,0.679,0.228,30.193736,-85.836159
5/7/2010 23:52:18,0.803,4.190,2.062,30.196797,-85.841724
5/7/2010 23:52:19,0.167,1.357,0.501,30.196866,-85.841849
5/7/2010 23:54:29,2.633,1.325,0.012,30.200439,-85.836159
5/7/2010 23:54:43,0.814,1.077,0.533,30.201980,-85.836019
5/7/2010 23:54:44,0.469,0.000,0.606,30.202054,-85.836007
5/7/2010 23:54:45,0.111,0.431,0.547,30.202128,-85.835994
5/7/2010 23:55:55,0.903,0.926,0.520,30.205432,-85.835514
5/7/2010 23:55:56,1.495,0.215,0.724,30.205433,-85.835514
5/7/2010 23:55:57,1.472,0.000,0.649,30.205433,-85.835514
5/7/2010 23:56:03,0.401,0.215,0.461,30.205455,-85.835511
5/7/2010 23:56:04,1.795,1.142,0.628,30.205469,-85.835509
5/7/2010 23:56:05,2.420,2.068,0.653,30.205488,-85.835502
5/7/2010 23:56:06,4.606,1.109,1.359,30.205517,-85.835492
5/7/2010 23:56:07,4.595,1.357,1.434,30.205549,-85.835486
5/7/2010 23:56:08,1.204,0.679,0.606,30.205578,-85.835488
5/7/2010 23:56:09,0.736,1.142,0.545,30.205600,-85.835497
5/7/2010 23:56:10,1.673,0.215,0.468,30.205614,-85.835507
5/7/2010 23:56:11,2.052,0.646,0.737,30.205622,-85.835516
5/7/2010 23:56:12,2.119,0.000,0.974,30.205625,-85.835520
5/7/2010 23:56:13,1.751,1.357,0.638,30.205625,-85.835520
5/7/2010 23:56:17,0.759,0.926,0.456,30.205625,-85.835520
5/7/2010 23:56:18,1.305,2.251,0.815,30.205625,-85.835520
5/7/2010 23:56:19,2.632,0.862,0.965,30.205625,-85.835520
5/7/2010 23:56:20,1.015,0.679,0.460,30.205625,-85.835520
5/7/2010 23:56:21,1.852,0.431,0.191,30.205625,-85.835520
5/7/2010 23:56:49,1.751,0.000,0.042,30.205757,-85.837995
5/7/2010 23:57:36,0.167,1.508,0.491,30.209342,-85.847023
5/7/2010 23:57:37,0.167,0.431,0.477,30.209408,-85.847130
5/7/2010 23:57:48,0.056,0.431,0.459,30.210042,-85.848166
5/7/2010 23:58:39,0.056,0.862,0.509,30.214432,-85.855347
5/7/2010 23:58:40,0.111,0.431,0.907,30.214551,-85.855544
5/7/2010 23:58:41,0.000,0.000,0.723,30.214671,-85.855740
5/7/2010 23:58:42,0.346,0.215,0.812,30.214792,-85.855936
5/7/2010 23:58:56,0.580,3.210,0.407,30.216464,-85.858677
5/7/2010 23:58:57,0.056,1.325,0.463,30.216582,-85.858868
5/7/2010 23:59:22,0.692,1.142,0.459,30.219573,-85.863765
5/7/2010 23:59:23,0.926,0.679,0.451,30.219692,-85.863961
5/7/2010 23:59:56,0.346,0.679,0.546,30.223795,-85.870676
5/7/2010 23:59:57,0.167,0.894,0.474,30.223935,-85.870902
5/7/2010 23:59:59,0.223,0.646,0.878,30.224216,-85.871363
5/7/2010 23:34:31,7.026,6.226,9.887,30.188169,-85.742767
5/7/2010 23:05:50,1.461,0.000,0.080,30.112263,-85.601357
5/7/2010 23:10:08,0.580,1.788,0.598,30.131115,-85.602934
5/7/2010 23:10:29,0.290,3.178,0.329,30.131103,-85.606619
5/7/2010 23:11:08,0.279,0.215,0.858,30.132091,-85.613592
5/7/2010 23:11:09,0.457,0.679,0.721,30.132232,-85.613702
5/7/2010 23:12:11,0.000,6.807,0.218,30.142958,-85.615652
5/7/2010 23:12:12,0.111,13.679,0.257,30.143134,-85.615651
5/7/2010 23:12:13,0.056,25.000,0.392,30.143304,-85.615649
5/7/2010 23:12:14,0.056,30.051,0.648,30.143471,-85.615648
5/7/2010 23:12:15,0.279,27.833,0.610,30.143634,-85.615647
5/7/2010 23:12:16,0.056,33.875,0.569,30.143795,-85.615646
5/7/2010 23:12:17,0.000,55.028,0.935,30.143954,-85.615644
5/7/2010 23:12:18,0.223,71.734,0.986,30.144110,-85.615642
5/7/2010 23:12:19,0.401,67.007,1.194,30.144264,-85.615639
5/7/2010 23:12:20,0.111,50.720,0.777,30.144416,-85.615636
5/7/2010 23:12:21,0.346,41.824,0.551,30.144567,-85.615632
5/7/2010 23:12:22,0.290,40.617,0.707,30.144717,-85.615628
5/7/2010 23:12:23,0.624,38.561,0.594,30.144866,-85.615625
5/7/2010 23:12:24,1.573,34.867,0.614,30.145014,-85.615622
5/7/2010 23:12:25,0.000,34.489,0.422,30.145162,-85.615616
5/7/2010 23:12:26,0.056,28.016,0.474,30.145309,-85.615609
5/7/2010 23:12:27,0.000,26.109,0.467,30.145455,-85.615602
5/7/2010 23:12:28,0.000,17.019,0.331,30.145601,-85.615597
5/7/2010 23:12:29,0.234,9.123,0.143,30.145745,-85.615594
5/7/2010 23:12:30,0.056,10.513,0.183,30.145888,-85.615592
5/7/2010 23:12:31,0.111,6.474,0.286,30.146029,-85.615591
5/7/2010 23:12:32,0.290,7.217,0.517,30.146172,-85.615589
5/7/2010 23:12:33,0.346,3.113,0.539,30.146315,-85.615587
5/7/2010 23:12:34,0.056,4.072,1.688,30.146458,-85.615585
5/7/2010 23:12:35,0.290,6.506,2.421,30.146599,-85.615581
5/7/2010 23:12:36,0.000,4.470,1.249,30.146743,-85.615580
5/7/2010 23:12:37,0.056,2.897,1.111,30.146887,-85.615579
5/7/2010 23:12:38,0.056,4.287,2.081,30.147028,-85.615579
5/7/2010 23:12:39,0.346,7.022,3.144,30.147167,-85.615578
5/7/2010 23:12:40,0.167,13.012,3.026,30.147303,-85.615579
5/7/2010 23:12:41,0.056,12.366,2.500,30.147431,-85.615577
5/7/2010 23:12:42,0.401,12.484,2.887,30.147555,-85.615577
5/7/2010 23:12:43,0.624,10.297,3.200,30.147670,-85.615575
5/7/2010 23:12:44,0.937,16.954,4.262,30.147777,-85.615574
5/7/2010 23:12:45,0.457,16.340,3.160,30.147876,-85.615574
5/7/2010 23:12:46,0.346,15.759,3.244,30.147968,-85.615574
5/7/2010 23:12:47,0.000,13.646,5.741,30.148052,-85.615575
5/7/2010 23:12:48,0.469,12.915,6.790,30.148134,-85.615577
5/7/2010 23:12:49,0.513,16.523,5.968,30.148221,-85.615575
5/7/2010 23:12:50,0.234,11.428,5.267,30.148309,-85.615571
5/7/2010 23:12:51,0.803,8.660,4.755,30.148405,-85.615569
5/7/2010 23:12:52,0.457,11.073,4.339,30.148506,-85.615568
5/7/2010 23:12:53,0.580,7.798,4.220,30.148610,-85.615567
5/7/2010 23:12:54,0.223,7.087,4.384,30.148721,-85.615570
5/7/2010 23:12:55,0.513,9.436,5.764,30.148831,-85.615572
5/7/2010 23:12:56,0.346,9.026,6.352,30.148949,-85.615579
5/7/2010 23:12:57,0.290,6.937,6.662,30.149067,-85.615584
5/7/2010 23:12:58,0.167,8.908,6.659,30.149189,-85.615592
5/7/2010 23:12:59,0.401,7.949,6.192,30.149309,-85.615600
5/7/2010 23:13:00,0.056,5.364,5.707,30.149436,-85.615615
5/7/2010 23:13:01,0.111,8.229,6.533,30.149562,-85.615632
5/7/2010 23:13:02,0.290,7.733,5.746,30.149691,-85.615651
5/7/2010 23:13:03,0.290,7.981,5.639,30.149822,-85.615674
5/7/2010 23:13:04,0.346,5.945,5.341,30.149956,-85.615699
5/7/2010 23:13:05,0.056,6.376,4.783,30.150090,-85.615727
5/7/2010 23:13:06,0.056,7.798,4.691,30.150225,-85.615757
5/7/2010 23:13:07,0.290,10.976,4.407,30.150358,-85.615789
5/7/2010 23:13:08,0.000,5.547,3.675,30.150489,-85.615822
5/7/2010 23:13:09,0.111,3.511,2.930,30.150617,-85.615858
5/7/2010 23:13:10,0.234,4.966,2.213,30.150745,-85.615896
5/7/2010 23:13:11,0.290,2.003,1.664,30.150872,-85.615937
5/7/2010 23:13:12,0.056,3.296,1.418,30.150999,-85.615980
5/7/2010 23:13:13,0.000,2.865,1.358,30.151122,-85.616024
5/7/2010 23:13:14,0.759,2.036,1.541,30.151239,-85.616069
5/7/2010 23:13:15,0.056,2.930,1.372,30.151353,-85.616114
5/7/2010 23:13:16,0.000,2.186,0.975,30.151464,-85.616158
5/7/2010 23:13:17,0.290,1.573,0.839,30.151572,-85.616206
5/7/2010 23:13:55,0.401,2.251,1.030,30.154023,-85.617902
5/7/2010 23:13:56,0.279,6.538,2.791,30.154100,-85.617982
5/7/2010 23:13:57,1.795,6.872,4.710,30.154175,-85.618063
5/7/2010 23:13:58,2.264,9.802,7.073,30.154249,-85.618145
5/7/2010 23:13:59,5.074,21.672,10.363,30.154326,-85.618231
5/7/2010 23:14:00,1.762,11.740,5.841,30.154406,-85.618319
5/7/2010 23:14:01,2.442,11.838,5.787,30.154485,-85.618409
5/7/2010 23:14:02,2.509,8.380,5.077,30.154564,-85.618502
5/7/2010 23:14:03,2.041,10.944,4.707,30.154643,-85.618597
5/7/2010 23:14:04,2.052,12.829,4.077,30.154720,-85.618694
5/7/2010 23:14:05,1.305,9.619,3.692,30.154797,-85.618793
5/7/2010 23:14:06,3.580,7.486,3.992,30.154872,-85.618895
5/7/2010 23:14:07,1.293,6.904,3.122,30.154948,-85.618997
5/7/2010 23:14:08,1.539,8.704,2.349,30.155024,-85.619102
5/7/2010 23:14:09,1.026,2.897,1.864,30.155102,-85.619213
5/7/2010 23:14:10,0.970,2.865,1.488,30.155178,-85.619328
5/7/2010 23:14:11,0.914,3.974,2.178,30.155252,-85.619441
5/7/2010 23:14:12,1.550,1.971,2.195,30.155322,-85.619554
5/7/2010 23:14:13,0.569,4.503,1.815,30.155390,-85.619665
5/7/2010 23:14:13,0.569,4.503,1.815,30.155390,-85.619665
5/7/2010 23:14:14,0.334,3.856,1.457,30.155454,-85.619774
5/7/2010 23:14:15,0.513,4.718,1.147,30.155514,-85.619879
5/7/2010 23:14:16,0.692,1.971,1.433,30.155570,-85.619978
5/7/2010 23:14:17,0.446,3.791,2.719,30.155623,-85.620073
5/7/2010 23:14:18,1.896,6.807,3.938,30.155672,-85.620163
5/7/2010 23:14:19,1.662,9.554,4.291,30.155716,-85.620245
5/7/2010 23:14:20,0.847,7.453,4.527,30.155753,-85.620318
5/7/2010 23:14:21,0.970,10.911,5.469,30.155785,-85.620380
5/7/2010 23:14:22,1.037,11.472,5.763,30.155812,-85.620433
5/7/2010 23:14:23,1.717,7.583,6.975,30.155836,-85.620481
5/7/2010 23:14:24,1.260,8.445,4.582,30.155858,-85.620526
5/7/2010 23:14:25,1.885,6.043,2.783,30.155878,-85.620567
5/7/2010 23:14:26,1.260,1.325,1.847,30.155896,-85.620606
5/7/2010 23:14:27,0.279,4.255,1.645,30.155912,-85.620642
5/7/2010 23:14:28,1.495,4.007,1.846,30.155930,-85.620682
5/7/2010 23:14:29,1.160,2.402,1.667,30.155950,-85.620729
5/7/2010 23:14:30,0.736,2.897,1.982,30.155973,-85.620781
5/7/2010 23:14:31,1.305,6.689,2.695,30.155999,-85.620841
5/7/2010 23:14:32,0.613,4.438,2.641,30.156029,-85.620912
5/7/2010 23:14:33,1.305,9.737,6.430,30.156063,-85.620993
5/7/2010 23:14:34,2.052,15.231,6.913,30.156100,-85.621085
5/7/2010 23:14:35,1.149,12.764,5.934,30.156140,-85.621186
5/7/2010 23:14:36,0.736,6.656,3.818,30.156180,-85.621292
5/7/2010 23:14:37,0.692,4.190,2.307,30.156221,-85.621401
5/7/2010 23:14:38,0.167,3.974,2.035,30.156260,-85.621516
5/7/2010 23:14:39,0.279,2.715,1.287,30.156297,-85.621633
5/7/2010 23:14:41,0.111,1.820,1.160,30.156371,-85.621872
5/7/2010 23:14:42,0.167,3.576,1.374,30.156409,-85.621994
5/7/2010 23:14:43,0.513,0.679,1.163,30.156442,-85.622117
5/7/2010 23:14:44,0.803,5.332,2.358,30.156479,-85.622241
5/7/2010 23:14:45,2.922,15.726,4.918,30.156514,-85.622371
5/7/2010 23:14:46,2.699,4.836,3.930,30.156550,-85.622506
5/7/2010 23:14:47,2.353,10.598,4.709,30.156583,-85.622640
5/7/2010 23:14:48,3.725,10.944,5.072,30.156611,-85.622773
5/7/2010 23:14:49,2.398,5.417,3.629,30.156639,-85.622903
5/7/2010 23:14:50,1.595,8.079,3.429,30.156670,-85.623034
5/7/2010 23:14:51,2.688,9.899,4.484,30.156694,-85.623166
5/7/2010 23:14:52,1.896,6.010,5.129,30.156717,-85.623297
5/7/2010 23:14:53,2.052,8.164,4.264,30.156733,-85.623426
5/7/2010 23:14:54,1.885,7.896,3.027,30.156759,-85.623551
5/7/2010 23:14:55,1.082,3.426,2.034,30.156867,-85.623599
5/7/2010 23:14:56,1.026,5.580,1.997,30.156967,-85.623650
5/7/2010 23:14:57,0.859,3.479,1.612,30.156809,-85.623934
5/7/2010 23:14:58,1.082,2.650,1.356,30.156825,-85.624059
5/7/2010 23:14:59,0.792,3.974,1.331,30.156835,-85.624175
5/7/2010 23:15:00,1.740,3.641,1.797,30.156833,-85.624293
5/7/2010 23:15:01,1.204,3.361,1.551,30.156840,-85.624383
5/7/2010 23:15:02,1.093,1.756,1.261,30.156846,-85.624458
5/7/2010 23:15:03,0.970,1.540,1.310,30.156850,-85.624519
5/7/2010 23:15:04,1.093,1.357,1.286,30.156854,-85.624573
5/7/2010 23:15:05,0.334,1.971,1.171,30.156857,-85.624623
5/7/2010 23:15:06,0.926,2.682,1.340,30.156859,-85.624673
5/7/2010 23:15:07,0.446,2.650,1.306,30.156861,-85.624729
5/7/2010 23:15:08,0.569,2.467,1.172,30.156863,-85.624795
5/7/2010 23:15:09,0.747,2.650,1.188,30.156865,-85.624875
5/7/2010 23:15:10,0.759,2.003,0.604,30.156866,-85.624966
5/7/2010 23:15:11,0.056,1.605,0.559,30.156866,-85.625069
5/7/2010 23:15:13,0.056,0.679,0.536,30.156866,-85.625300
5/7/2010 23:15:14,0.279,1.325,0.928,30.156868,-85.625428
5/7/2010 23:15:15,0.446,0.862,1.033,30.156868,-85.625565
5/7/2010 23:15:16,0.814,2.251,0.571,30.156868,-85.625710
5/7/2010 23:15:17,0.847,1.573,0.733,30.156868,-85.625863
5/7/2010 23:15:18,0.624,1.357,0.896,30.156867,-85.626024
5/7/2010 23:15:19,0.982,4.320,0.890,30.156865,-85.626192
5/7/2010 23:15:20,0.111,4.352,0.998,30.156865,-85.626360
5/7/2010 23:15:21,0.970,2.003,1.010,30.156867,-85.626522
5/7/2010 23:15:22,0.056,2.219,0.949,30.156867,-85.626679
5/7/2010 23:15:23,0.747,1.325,0.806,30.156868,-85.626834
5/7/2010 23:15:24,1.293,10.814,7.013,30.156868,-85.626991
5/7/2010 23:15:25,4.249,10.545,7.536,30.156869,-85.627151
5/7/2010 23:15:26,2.565,11.655,4.812,30.156868,-85.627316
5/7/2010 23:15:27,1.606,3.824,1.764,30.156871,-85.627485
5/7/2010 23:15:28,0.334,2.962,1.501,30.156868,-85.627658
5/7/2010 23:15:29,2.532,7.120,2.692,30.156871,-85.627831
5/7/2010 23:15:30,3.067,4.868,2.991,30.156873,-85.628002
5/7/2010 23:15:31,2.141,8.014,4.474,30.156875,-85.628167
5/7/2010 23:15:32,1.885,5.299,2.519,30.156875,-85.628327
5/7/2010 23:15:33,0.982,4.104,2.050,30.156876,-85.628487
5/7/2010 23:15:34,1.137,2.865,1.266,30.156877,-85.628646
5/7/2010 23:15:35,1.160,2.003,0.794,30.156874,-85.628805
5/7/2010 23:15:36,0.401,0.862,0.684,30.156874,-85.628961
5/7/2010 23:15:37,0.803,1.508,1.730,30.156875,-85.629115
5/7/2010 23:15:38,0.982,3.113,3.831,30.156875,-85.629271
5/7/2010 23:15:39,1.305,5.364,2.284,30.156875,-85.629430
5/7/2010 23:15:40,1.305,3.296,1.748,30.156878,-85.629593
5/7/2010 23:15:41,1.216,1.077,1.603,30.156880,-85.629760
5/7/2010 23:15:42,0.914,3.393,2.063,30.156881,-85.629929
5/7/2010 23:15:43,0.502,2.682,1.339,30.156883,-85.630094
5/7/2010 23:15:44,1.037,1.292,0.912,30.156883,-85.630254
5/7/2010 23:15:45,1.450,2.434,2.391,30.156884,-85.630407
5/7/2010 23:15:46,1.026,2.434,2.005,30.156884,-85.630554